#timestamp,LO_Frequency,Hit,StdDev 
1591873215.3,286047001.1,N
1591873235.2,286047000.3,N
1591873255.9,286047001.2,N
1591873275.7,286047001.2,N
1591873295.6,286046997.8,N
1591873315.4,286046997.5,N
1591873335.3,286046998.8,N
1591873355.1,286047001.2,N
1591873356.0,286047001.2,N
1591873375.8,286047000.9,N
1591873395.7,286047002.6,N
1591873415.5,286047001.0,N
1591873435.4,286047001.2,N
1591873455.2,286047000.2,N
1591873475.0,286047000.3,N
1591873475.9,286047000.3,N
1591873495.8,286046999.7,N
1591873515.6,286047002.4,N
1591873535.5,286047002.3,N
1591873555.3,286047002.7,N
1591873575.1,286047002.7,N
1591873595.9,286047001.5,N
1591873615.7,286047004.3,N
1591873635.5,286047002.7,N
1591873655.4,286047002.8,N
1591873675.2,286047000.2,N
1591873695.1,286046999.7,N
1591873696.0,286046999.7,N
1591873715.8,286047001.4,N
1591873735.6,286047000.2,N
1591873755.5,286047002.7,N
1591873775.3,286047000.2,N
1591873795.2,286046999.4,N
1591873815.9,286047000.8,N
1591873835.7,286046998.2,N
1591873855.6,286046998.6,N
1591873875.4,286047000.0,N
1591873895.2,286047000.2,N
1591873915.1,286047002.5,N
1591873916.0,286047002.5,N
1591873935.8,286047004.0,N
1591873955.7,286047001.8,N
1591873975.5,286047000.4,N
1591873995.3,286047000.5,N
1591874015.2,286046999.0,N
1591874035.0,286047001.6,N
1591874035.9,286047001.6,N
1591874055.8,286047002.3,N
1591874075.6,286047003.9,N
1591874095.4,286047003.1,N
1591874115.3,286047003.7,N
1591874135.1,286047006.0,Y
1591874155.9,286047002.5,P
1591874175.7,286047001.5,N
1591874195.5,286047003.2,P
1591874215.4,286047005.5,Y
1591874235.2,286047002.3,P
1591874255.0,286047000.7,P
1591874256.0,286047000.7,N
1591874275.8,286046999.7,N
1591874295.6,286047002.7,N
1591874315.5,286047001.8,N
1591874335.3,286047002.6,N
1591874355.1,286047001.0,N
1591874375.9,286046999.9,N
1591874395.7,286046999.6,N
1591874415.6,286046998.7,N
1591874435.4,286047000.4,N
1591874455.2,286046999.6,N
1591874475.1,286046998.6,N
1591874476.0,286046998.6,N
1591874495.8,286046999.0,N
1591874515.7,286046999.4,N
1591874535.5,286046997.3,N
1591874555.3,286046996.9,N
1591874575.2,286046996.7,N
1591874595.0,286047000.2,N
1591874595.9,286047000.2,N
1591874615.7,286046998.5,N
1591874635.6,286046998.6,N
1591874655.4,286046996.5,N
1591874675.3,286047000.5,N
1591874695.1,286047000.5,N
1591874696.0,286047000.5,N
1591874715.8,286047000.4,N
1591874735.7,286046998.8,N
1591874755.5,286046998.6,N
1591874775.4,286047001.1,N
1591874795.2,286047000.0,N
1591874815.1,286046998.3,N
1591874816.0,286046998.3,N
1591874835.8,286047000.5,N
1591874855.6,286046998.3,N
1591874875.5,286046996.5,N
1591874895.3,286046997.3,N
1591874915.1,286046996.7,N
1591874935.9,286046999.3,N
1591874955.7,286047000.4,N
1591874975.6,286047001.0,N
1591874995.4,286046998.2,N
1591875015.2,286046998.6,N
1591875035.1,286047000.0,N
1591875036.0,286047000.0,N
1591875055.8,286047000.3,N
1591875075.7,286047001.1,N
1591875095.5,286047000.6,N
1591875115.3,286047000.4,N
1591875135.2,286046995.0,Y
1591875155.0,286047000.6,P
1591875155.9,286047000.6,N
1591875175.8,286047004.2,P
1591875195.6,286047003.8,N
1591875215.4,286047004.1,N
1591875235.3,286047001.4,N
1591875255.1,286047002.2,N
1591875275.8,286047002.2,N
1591875295.7,286047001.4,N
1591875315.5,286047002.4,N
1591875335.4,286047001.9,N
1591875355.2,286047002.6,N
1591875375.0,286047000.6,N
1591875375.9,286047000.6,N
1591875395.8,286047000.8,N
1591875415.6,286047000.9,N
1591875435.5,286047001.2,N
1591875455.3,286047001.0,N
1591875475.1,286047000.5,N
1591875495.9,286046999.7,N
1591875515.7,286046998.4,N
1591875535.5,286046998.6,N
1591875555.4,286046999.5,N
1591875575.2,286046998.8,N
1591875595.1,286046998.8,N
1591875596.0,286046998.8,N
1591875615.8,286046998.8,N
1591875635.6,286046998.6,N
1591875655.5,286046998.4,N
1591875675.3,286046996.8,N
1591875695.2,286046997.1,N
1591875715.9,286046998.0,N
1591875735.7,286046997.7,N
1591875755.6,286046995.7,N
1591875775.4,286046996.3,N
1591875795.3,286046993.5,Y
1591875815.1,286046993.6,P
1591875816.0,286046993.6,N
1591875835.8,286046994.3,N
1591875855.7,286046996.4,N
1591875875.5,286046995.0,N
1591875895.4,286046993.3,Y
1591875915.2,286047000.6,P
1591875935.0,286047000.8,N
1591875935.9,286047000.8,N
1591875955.8,286047000.7,N
1591875975.6,286047001.0,N
1591875995.4,286046998.2,N
1591876015.3,286047000.1,N
1591876035.1,286046999.7,N
1591876055.9,286047000.7,N
1591876075.7,286046998.3,N
1591876095.5,286046998.2,N
1591876115.4,286046999.5,N
1591876135.2,286046997.0,N
1591876155.0,286046997.6,N
1591876156.0,286046997.6,N
1591876175.8,286046996.5,N
1591876195.6,286046997.4,N
1591876215.5,286046997.2,N
1591876235.3,286046997.7,N
1591876255.1,286046997.6,N
1591876275.9,286046996.9,N
1591876295.7,286046997.0,N
1591876315.6,286046996.7,N
1591876335.4,286046995.4,N
1591876355.2,286046995.0,N
1591876375.1,286046993.6,Y
1591876376.0,286046993.6,P
1591876395.8,286046995.8,N
1591876415.7,286046993.7,P
1591876435.5,286046996.1,N
1591876455.3,286046997.1,N
1591876475.2,286046999.3,N
1591876495.0,286046999.3,N
1591876495.9,286046999.3,N
1591876515.8,286046998.6,N
1591876535.6,286046998.5,N
1591876555.4,286046998.9,N
1591876575.3,286047000.7,N
1591876595.1,286047000.3,N
1591876615.8,286047001.2,N
1591876635.7,286047000.8,N
1591876655.5,286047000.9,N
1591876675.4,286046999.7,N
1591876695.2,286047002.7,N
1591876715.0,286046999.9,N
1591876715.9,286046999.9,N
1591876735.8,286047000.3,N
1591876755.6,286047002.7,N
1591876775.4,286047004.1,N
1591876795.3,286047001.7,N
